TimeCDT,TemperatureF,Dew PointF,Humidity,Sea Level PressureIn,VisibilityMPH,Wind Direction,Wind SpeedMPH,Gust SpeedMPH,PrecipitationIn,Events,Conditions,WindDirDegrees,DateUTC
12:52 AM,41.0,34.0,76,30.35,10.0,Calm,Calm,-,N/A,,Overcast,0,2012-10-07 05:52:00
1:52 AM,39.9,32.0,73,30.35,10.0,Calm,Calm,-,N/A,,Overcast,0,2012-10-07 06:52:00
2:52 AM,39.9,32.0,73,30.35,10.0,Calm,Calm,-,N/A,,Overcast,0,2012-10-07 07:52:00
3:52 AM,37.0,32.0,82,30.35,10.0,Calm,Calm,-,N/A,,Overcast,0,2012-10-07 08:52:00
4:52 AM,33.1,30.0,89,30.34,10.0,Calm,Calm,-,N/A,,Clear,0,2012-10-07 09:52:00
5:52 AM,32.0,28.0,85,30.34,10.0,North,4.6,-,N/A,,Clear,360,2012-10-07 10:52:00
6:52 AM,32.0,28.0,85,30.35,10.0,North,6.9,-,N/A,,Clear,350,2012-10-07 11:52:00
7:52 AM,32.0,28.9,88,30.35,10.0,Calm,Calm,-,N/A,,Clear,0,2012-10-07 12:52:00
8:52 AM,39.9,30.9,70,30.35,10.0,North,3.5,-,N/A,,Clear,350,2012-10-07 13:52:00
9:52 AM,46.9,30.0,52,30.36,10.0,NNW,4.6,-,N/A,,Clear,330,2012-10-07 14:52:00
10:52 AM,50.0,28.0,43,30.37,10.0,Variable,5.8,-,N/A,,Clear,0,2012-10-07 15:52:00
11:52 AM,52.0,27.0,38,30.35,10.0,Variable,3.5,-,N/A,,Clear,0,2012-10-07 16:52:00
12:52 PM,55.0,27.0,34,30.32,10.0,Calm,Calm,-,N/A,,Clear,0,2012-10-07 17:52:00
1:52 PM,54.0,25.0,33,30.29,10.0,Calm,Calm,-,N/A,,Clear,0,2012-10-07 18:52:00
2:52 PM,55.9,26.1,32,30.26,10.0,Calm,Calm,-,N/A,,Clear,0,2012-10-07 19:52:00
3:52 PM,57.0,26.1,30,30.23,10.0,West,3.5,-,N/A,,Clear,260,2012-10-07 20:52:00
4:52 PM,55.9,26.1,32,30.22,10.0,Variable,4.6,-,N/A,,Clear,0,2012-10-07 21:52:00
5:52 PM,55.9,26.1,32,30.20,10.0,SSW,3.5,-,N/A,,Clear,200,2012-10-07 22:52:00
6:52 PM,50.0,28.9,44,30.21,10.0,South,3.5,-,N/A,,Clear,170,2012-10-07 23:52:00
7:52 PM,46.0,28.0,50,30.22,10.0,South,4.6,-,N/A,,Clear,190,2012-10-08 00:52:00
8:52 PM,37.0,30.0,76,30.23,10.0,Calm,Calm,-,N/A,,Clear,0,2012-10-08 01:52:00
9:52 PM,37.9,28.9,70,30.24,10.0,Calm,Calm,-,N/A,,Clear,0,2012-10-08 02:52:00
10:52 PM,37.0,28.9,73,30.24,10.0,Calm,Calm,-,N/A,,Clear,0,2012-10-08 03:52:00
11:52 PM,37.0,28.9,73,30.22,10.0,South,3.5,-,N/A,,Clear,180,2012-10-08 04:52:00